Regional Weather Roundup
Issued by NWS

Home | Current Version | Previous Version | Graphics & Text | Print | Product List | Glossary On
Versions: 1 2 3 4 5 6 7 8 9 10 11 12 13 14 15 16 17 18 19 20 21 22 23 24 25 26 27 28 29 30 31 32 33 34 35 36 37 38 39 40 41 42 43 44 45 46 47 48 49 50
000
ASUS43 KIND 212209
RWRIN

WEATHER ROUNDUP FOR INDIANA
NATIONAL WEATHER SERVICE INDIANAPOLIS IN
600 PM EDT THU AUG 21 2014

NOTE: "FAIR" INDICATES FEW OR NO CLOUDS BELOW 12,000 FEET WITH NO
SIGNIFICANT WEATHER AND/OR OBSTRUCTIONS TO VISIBILITY.

* - STATION DOES NOT REPORT WEATHER SUCH AS PRECIPITATION OR FOG.

+ - STATION NOT QUALITY CONTROLLED BY THE NATIONAL WEATHER SERVICE.
    USE DATA WITH CAUTION...ESPECIALLY DEWPOINT AND RELATIVE
    HUMIDITY OBSERVATIONS.

INZ001>003-010>013-019-020-212300-
NORTHWEST INDIANA

CITY           SKY/WX    TMP DP  RH WIND       PRES   REMARKS
GARY /AIRPORT/ TSTM      75  73  94 N20       29.95R VSB 1
KNOX *+        PTSUNNY   79  73  82 E8        29.94F
LA PORTE +     LGT RAIN  76  76 100 E5        29.96F
MICHIGAN CITY+ RAIN      77  73  88 CALM      29.96F
MONTICELLO +   MOSUNNY   84  76  75 SW8       29.94F
RENSSELAER +   PTSUNNY   84  77  79 S9        29.93F
VALPARAISO     LGT RAIN  77  74  90 E10       29.93F

$$

LMZ046-743>745-212300-
SOUTHERN LAKE MICHIGAN

STATION/POSITION TIME  TEMP WIND        PRES
                       AIR  DIR/SP/G
                 (UTC) (F)  (DEG/KT/KT) (MB)
BURNS HARBOR     2100   77   80/ 11/ 16   N/A
MICHIGAN CITY    2200   77  110/  5/  7   N/A

$$

INZ004-005-014>016-021>024-212300-
NORTH CENTRAL INDIANA

CITY           SKY/WX    TMP DP  RH WIND       PRES   REMARKS
ELKHART        PTSUNNY   79  72  78 SW6       29.97F
GOSHEN         PTSUNNY   80  71  74 S7        29.97F
LOGANSPORT +   PTSUNNY   82  72  69 SW6       29.96F
PERU/GRISSOM   PTSUNNY   83  79  86 SW8       29.96F
ROCHESTER +    LGT RAIN  79  75  89 E5        29.96F
SOUTH BEND     PTSUNNY   79  71  76 S8        29.96F
WARSAW +       PTSUNNY   77  72  83 S5        29.97F

$$

INZ006>009-017-018-025>027-212300-
NORTHEAST INDIANA

CITY           SKY/WX    TMP DP  RH WIND       PRES   REMARKS
ANGOLA *+      SUNNY     81  70  69 SW10      29.98F
AUBURN +       PTSUNNY   77  70  78 CALM      30.00F
FORT WAYNE     PTSUNNY   78  71  79 S9        30.00S
HUNTINGTON +   CLOUDY    77  72  84 CALM      29.99F

$$

INZ028-029-035-036-043>045-051>053-212300-
WEST CENTRAL INDIANA

CITY           SKY/WX    TMP DP  RH WIND       PRES   REMARKS
GREENCASTLE +  MOSUNNY   82  77  83 S5        29.98F
LAFAYETTE      MOSUNNY   85  75  72 SW7       29.94F
TERRE HAUTE    MOSUNNY   87  75  67 S10       29.97F HX  96

$$

INZ030>032-037>040-046>048-054>057-064-065-212300-
CENTRAL INDIANA

CITY           SKY/WX    TMP DP  RH WIND       PRES   REMARKS
CP ATTERBURY + MOSUNNY   86  72  62 SW6       29.99F
FRANKFORT +    MOSUNNY   86  75  70 S5        29.97F HX  95
INDIANAPOLIS   PTSUNNY   85  74  69 SW9       29.97F
-EAGLE CREEK   PTSUNNY   85  73  67 SW7       29.97F
KOKOMO *+      PTSUNNY   84  73  70 SW8       29.96F
MARION +       CLOUDY    81  72  74 S6        29.99F
MT COMFORT *+  PTSUNNY   84  73  70 S6        29.99S
SHELBYVILLE    SUNNY     87  74  64 S10       29.98F HX  95
ZIONSVILLE +   PTSUNNY   86  73  66 SW10      29.98F

$$

INZ033-034-041-042-049-050-058-059-212300-
EAST CENTRAL INDIANA

CITY           SKY/WX    TMP DP  RH WIND       PRES   REMARKS
MUNCIE         MOSUNNY   82  71  69 S8        29.99F

$$

INZ060-061-067>069-081>083-085>088-212300-
SOUTHWEST INDIANA

CITY           SKY/WX    TMP DP  RH WIND       PRES   REMARKS
EVANSVILLE     MOSUNNY   92  71  50 SW12      29.99F HX  98
WASHINGTON +   PTSUNNY   86  76  71 S3        29.97F HX  96

$$

INZ062-063-066-070>080-084-089>092-212300-
SOUTH CENTRAL AND SOUTHEAST INDIANA

CITY           SKY/WX    TMP DP  RH WIND       PRES   REMARKS
BEDFORD +      SUNNY     88  72  58 SW7       30.00
BLOOMINGTON    MOSUNNY   85  76  74 SW7       29.99F
NORTH VERNON + MOSUNNY   86  75  70 SW5       30.01  HX  95

$$



USA.gov is the U.S. government's official web portal to all federal, state and local government web resources and services.